When you browse on this site, cookies collect data to enhance your experience and personalize the content and advertising you see.
Visit our Privacy Policy to learn more. By continuing to use the site, you agree to this use of cookies and data.
  • în România
  • Lista ţărilor
  • Pe 7 zile
  • Temperatura apei
  • Meteo pe hartă
  • Widget-uri
  • user-avatar
    Intrare

    Meteo pe oră la Skarżysko-Kamienna

    Astăzi, 21 August, Miercuri

    Timp Temperatura Precipitaţii Vânt Presiune Umiditate
    00:00 +20°C° 0.6 mm 3 m/s 744 mmHg 90%
    01:00 +20°C° 0.6 mm 4 m/s 743 mmHg 92%
    02:00 +20°C° 0.2 mm 3 m/s 743 mmHg 94%
    03:00 +20°C° 0.2 mm 3 m/s 743 mmHg 95%
    04:00 +20°C° 0.2 mm 2 m/s 743 mmHg 96%
    05:00 +20°C° 0 mm 3 m/s 743 mmHg 94%
    06:00 +21°C° 0 mm 3 m/s 744 mmHg 92%
    07:00 +21°C° 0 mm 4 m/s 744 mmHg 90%
    08:00 +20°C° 0 mm 4 m/s 745 mmHg 90%
    09:00 +19°C° 0 mm 5 m/s 745 mmHg 89%
    10:00 +17°C° 0 mm 5 m/s 746 mmHg 89%
    11:00 +17°C° 0 mm 6 m/s 747 mmHg 82%
    12:00 +19°C° 0 mm 6 m/s 747 mmHg 75%
    13:00 +20°C° 0 mm 6 m/s 748 mmHg 69%
    14:00 +19°C° 0 mm 5 m/s 748 mmHg 67%
    15:00 +19°C° 0 mm 5 m/s 748 mmHg 66%
    16:00 +19°C° 0 mm 5 m/s 748 mmHg 65%
    17:00 +18°C° 0 mm 4 m/s 749 mmHg 69%
    18:00 +17°C° 0 mm 3 m/s 749 mmHg 73%
    19:00 +17°C° 0 mm 2 m/s 749 mmHg 77%
    20:00 +16°C° 0 mm 2 m/s 749 mmHg 80%
    21:00 +15°C° 0 mm 2 m/s 750 mmHg 83%
    22:00 +14°C° 0 mm 1 m/s 750 mmHg 87%
    23:00 +14°C° 0 mm 1 m/s 750 mmHg 88%

    Mâine, 22 August, Joi

    Timp Temperatura Precipitaţii Vânt Presiune Umiditate
    00:00 +13°C° 0 mm 1 m/s 750 mmHg 90%
    01:00 +13°C° 0 mm 1 m/s 750 mmHg 91%
    02:00 +13°C° 0 mm 1 m/s 750 mmHg 92%
    03:00 +12°C° 0 mm 1 m/s 750 mmHg 93%
    04:00 +12°C° 0 mm 1 m/s 750 mmHg 93%
    05:00 +13°C° 0 mm 2 m/s 750 mmHg 87%
    06:00 +14°C° 0 mm 2 m/s 751 mmHg 80%
    07:00 +14°C° 0 mm 3 m/s 751 mmHg 74%
    08:00 +17°C° 0 mm 3 m/s 751 mmHg 68%
    09:00 +18°C° 0 mm 4 m/s 751 mmHg 62%
    10:00 +20°C° 0 mm 4 m/s 751 mmHg 56%
    11:00 +21°C° 0 mm 4 m/s 751 mmHg 55%
    12:00 +21°C° 0 mm 4 m/s 750 mmHg 53%
    13:00 +22°C° 0 mm 4 m/s 750 mmHg 52%
    14:00 +22°C° 0 mm 4 m/s 750 mmHg 53%
    15:00 +22°C° 0 mm 4 m/s 750 mmHg 54%
    16:00 +22°C° 0 mm 4 m/s 749 mmHg 55%
    17:00 +20°C° 0 mm 3 m/s 749 mmHg 60%
    18:00 +19°C° 0 mm 3 m/s 749 mmHg 65%
    19:00 +18°C° 0 mm 2 m/s 749 mmHg 70%
    20:00 +17°C° 0 mm 2 m/s 749 mmHg 73%
    21:00 +16°C° 0 mm 2 m/s 749 mmHg 75%
    22:00 +15°C° 0 mm 2 m/s 750 mmHg 78%
    23:00 +15°C° 0 mm 2 m/s 750 mmHg 81%

    Poimâine, 23 August, Vineri

    Timp Temperatura Precipitaţii Vânt Presiune Umiditate
    00:00 +14°C° 0 mm 2 m/s 750 mmHg 83%
    01:00 +14°C° 0 mm 2 m/s 749 mmHg 86%
    02:00 +14°C° 0 mm 2 m/s 749 mmHg 88%
    03:00 +13°C° 0 mm 2 m/s 749 mmHg 90%
    04:00 +13°C° 0 mm 2 m/s 749 mmHg 92%
    05:00 +14°C° 0 mm 2 m/s 749 mmHg 88%
    06:00 +16°C° 0 mm 3 m/s 750 mmHg 83%
    07:00 +17°C° 0 mm 3 m/s 750 mmHg 78%
    08:00 +19°C° 0 mm 3 m/s 750 mmHg 71%
    09:00 +20°C° 0 mm 4 m/s 750 mmHg 65%
    10:00 +22°C° 0 mm 4 m/s 750 mmHg 58%
    11:00 +23°C° 0 mm 4 m/s 750 mmHg 56%
    12:00 +25°C° 0 mm 4 m/s 749 mmHg 53%
    13:00 +26°C° 0 mm 4 m/s 749 mmHg 51%
    14:00 +25°C° 0 mm 4 m/s 749 mmHg 52%
    15:00 +25°C° 0 mm 4 m/s 749 mmHg 53%
    16:00 +25°C° 0 mm 4 m/s 748 mmHg 54%
    17:00 +22°C° 0 mm 4 m/s 748 mmHg 60%
    18:00 +21°C° 0 mm 3 m/s 748 mmHg 66%
    19:00 +19°C° 0 mm 3 m/s 748 mmHg 72%
    20:00 +18°C° 0 mm 3 m/s 748 mmHg 74%
    21:00 +17°C° 0 mm 3 m/s 748 mmHg 75%
    22:00 +17°C° 0 mm 3 m/s 749 mmHg 77%
    23:00 +16°C° 0 mm 3 m/s 748 mmHg 77%

    24 August, Sâmbătă

    Timp Temperatura Precipitaţii Vânt Presiune Umiditate
    00:00 +16°C° 0 mm 3 m/s 748 mmHg 77%
    01:00 +15°C° 0 mm 2 m/s 748 mmHg 78%
    02:00 +15°C° 0 mm 2 m/s 748 mmHg 78%
    03:00 +14°C° 0 mm 2 m/s 748 mmHg 78%
    04:00 +14°C° 0 mm 2 m/s 748 mmHg 79%
    05:00 +14°C° 0 mm 3 m/s 748 mmHg 75%
    06:00 +16°C° 0 mm 3 m/s 748 mmHg 72%
    07:00 +18°C° 0 mm 4 m/s 748 mmHg 69%
    08:00 +19°C° 0 mm 4 m/s 748 mmHg 63%
    09:00 +21°C° 0 mm 4 m/s 748 mmHg 58%
    10:00 +23°C° 0 mm 5 m/s 748 mmHg 53%
    11:00 +25°C° 0 mm 5 m/s 747 mmHg 51%
    12:00 +26°C° 0 mm 4 m/s 747 mmHg 50%
    13:00 +27°C° 0 mm 4 m/s 747 mmHg 49%
    14:00 +27°C° 0 mm 4 m/s 746 mmHg 51%
    15:00 +27°C° 0 mm 4 m/s 746 mmHg 53%
    16:00 +26°C° 0 mm 4 m/s 746 mmHg 54%
    17:00 +25°C° 0 mm 4 m/s 746 mmHg 61%
    18:00 +22°C° 0 mm 3 m/s 746 mmHg 67%
    19:00 +20°C° 0 mm 3 m/s 745 mmHg 74%
    20:00 +20°C° 0 mm 3 m/s 746 mmHg 75%
    21:00 +19°C° 0 mm 3 m/s 746 mmHg 77%
    22:00 +18°C° 0 mm 2 m/s 746 mmHg 79%
    23:00 +18°C° 0 mm 2 m/s 746 mmHg 79%

    25 August, Duminică

    Timp Temperatura Precipitaţii Vânt Presiune Umiditate
    00:00 +17°C° 0 mm 2 m/s 745 mmHg 80%
    01:00 +17°C° 0 mm 2 m/s 745 mmHg 80%
    02:00 +16°C° 0 mm 2 m/s 745 mmHg 82%
    03:00 +16°C° 0 mm 2 m/s 745 mmHg 84%
    04:00 +16°C° 0 mm 2 m/s 745 mmHg 86%
    05:00 +17°C° 0 mm 2 m/s 745 mmHg 83%
    06:00 +18°C° 0 mm 3 m/s 745 mmHg 79%
    07:00 +19°C° 0 mm 3 m/s 745 mmHg 76%
    08:00 +21°C° 0 mm 3 m/s 745 mmHg 71%
    09:00 +23°C° 0 mm 4 m/s 745 mmHg 66%
    10:00 +26°C° 0 mm 4 m/s 746 mmHg 61%
    11:00 +27°C° 0 mm 4 m/s 745 mmHg 58%
    12:00 +28°C° 0 mm 4 m/s 745 mmHg 55%
    13:00 +29°C° 0 mm 4 m/s 745 mmHg 52%
    14:00 +29°C° 0 mm 4 m/s 745 mmHg 53%
    15:00 +29°C° 0 mm 4 m/s 745 mmHg 55%
    16:00 +28°C° 0 mm 4 m/s 745 mmHg 56%
    17:00 +27°C° 0 mm 4 m/s 745 mmHg 62%
    18:00 +25°C° 0 mm 3 m/s 745 mmHg 69%
    19:00 +22°C° 0 mm 3 m/s 745 mmHg 76%
    20:00 +21°C° 0 mm 3 m/s 745 mmHg 76%
    21:00 +21°C° 0 mm 3 m/s 745 mmHg 77%
    22:00 +20°C° 0 mm 3 m/s 745 mmHg 77%
    23:00 +19°C° 0 mm 3 m/s 745 mmHg 78%

    26 August, Luni

    Timp Temperatura Precipitaţii Vânt Presiune Umiditate
    00:00 +19°C° 0 mm 3 m/s 745 mmHg 80%
    01:00 +18°C° 0 mm 3 m/s 745 mmHg 81%
    02:00 +18°C° 0 mm 3 m/s 745 mmHg 83%
    03:00 +18°C° 0 mm 2 m/s 745 mmHg 85%
    04:00 +17°C° 0 mm 2 m/s 744 mmHg 87%
    05:00 +19°C° 0 mm 3 m/s 744 mmHg 82%
    06:00 +20°C° 0 mm 3 m/s 745 mmHg 78%
    07:00 +21°C° 0 mm 4 m/s 745 mmHg 73%
    08:00 +22°C° 0 mm 3 m/s 745 mmHg 67%
    09:00 +25°C° 0 mm 3 m/s 745 mmHg 62%
    10:00 +27°C° 0 mm 3 m/s 745 mmHg 57%
    11:00 +28°C° 0 mm 3 m/s 745 mmHg 54%
    12:00 +29°C° 0 mm 3 m/s 745 mmHg 51%
    13:00 +30°C° 0 mm 3 m/s 745 mmHg 48%
    14:00 +31°C° 0 mm 3 m/s 745 mmHg 47%
    15:00 +31°C° 0 mm 2 m/s 744 mmHg 47%
    16:00 +31°C° 0 mm 2 m/s 744 mmHg 47%
    17:00 +29°C° 0 mm 2 m/s 744 mmHg 54%
    18:00 +27°C° 0 mm 2 m/s 744 mmHg 61%
    19:00 +25°C° 0 mm 2 m/s 744 mmHg 68%
    20:00 +24°C° 0.3 mm 2 m/s 744 mmHg 73%
    21:00 +23°C° 0.3 mm 2 m/s 744 mmHg 78%
    22:00 +22°C° 0.3 mm 1 m/s 745 mmHg 83%
    23:00 +22°C° 0.1 mm 1 m/s 745 mmHg 84%
    Arată mai mult